This demonstration page uses our WeatherBlox Daily Observations layout. Learn more.

Left ArrowRight Arrow

36.17497, -115.13722

Hourly Observations for October 9, 2021

Temp ( °F °C ) Dew Point ( °F °C ) Humidity (%) Winds ( mph kmh ) Pressure ( in mb ) Visibility ( mi km ) Precip ( " mm )
12:53 am 00:53 Clear 61 16.1 43 6.1 52 52 NNW 7 11 29.94 1014 10 16 0.00 0.00
1:53 am 01:53 Clear 62 16.7 43 6.1 50 50 N 8 13 29.94 1014 10 16 0.00 0.00
2:53 am 02:53 Clear 60 15.6 43 6.1 53 53 N 5 7 29.94 1014 10 16 0.00 0.00
3:53 am 03:53 Clear 60 15.6 40 4.4 47 47 N 5 7 29.95 1014 10 16 0.00 0.00
4:53 am 04:53 Clear 59 15 40 4.4 49 49 W 5 7 29.96 1015 10 16 0.00 0.00
5:53 am 05:53 Clear 57 13.9 40 4.4 53 53 Calm 29.98 1015 10 16 0.00 0.00
6:53 am 06:53 Sunny 56 13.3 41 5 57 57 Calm 30.00 1016 10 16 0.00 0.00
7:53 am 07:53 Sunny 60 15.6 41 5 50 50 Calm 30.01 1016 10 16 0.00 0.00
8:53 am 08:53 Sunny 63 17.2 40 4.4 43 43 Calm 30.02 1017 10 16 0.00 0.00
9:53 am 09:53 Sunny 67 19.4 41 5 39 39 E 5 7 30.04 1017 10 16 0.00 0.00
10:53 am 10:53 Sunny 72 22.2 40 4.4 31 31 ENE 9 15 30.03 1017 10 16 0.00 0.00
11:53 am 11:53 Mostly Sunny 74 23.3 38 3.3 27 27 NE 7 11 30.02 1017 10 16 0.00 0.00
12:40 pm 12:40 Partly Cloudy 75 23.9 36 2.2 24 24 NE 14 22 29.89 1012 10 16 0.00 0.00
12:53 pm 12:53 Mostly Cloudy 74 23.3 34 1.1 23 23 VRB 7 11 30.00 1016 10 16 0.00 0.00
1:53 pm 13:53 Sunny 73 22.8 34 1.1 24 24 NW 13 20 29.98 1015 10 16 0.00 0.00
2:53 pm 14:53 Sunny 75 23.9 30 -1.1 19 19 WNW 8 13 29.96 1015 10 16 0.00 0.00
3:53 pm 15:53 Partly Cloudy 76 24.4 30 -1.1 18 18 ENE 12 19 29.96 1014 10 16 0.00 0.00
4:53 pm 16:53 Cloudy 77 25 31 -0.6 18 18 undefined N/A 29.96 1015 10 16 0.00 0.00
5:53 pm 17:53 Mostly Sunny 76 24.4 22 -5.6 13 13 NW 9 15 29.95 1014 10 16 0.00 0.00
6:53 pm 18:53 Clear 74 23.3 20 -6.7 13 13 NNW 12 19 29.97 1015 10 16 0.00 0.00
7:53 pm 19:53 Clear 72 22.2 19 -7.2 13 13 NNW 10 17 29.99 1016 10 16 0.00 0.00
8:53 pm 20:53 Clear 70 21.1 22 -5.6 16 16 NNW 8 13 30.00 1016 10 16 0.00 0.00
9:53 pm 21:53 Clear 68 20 23 -5 18 18 NW 8 13 30.02 1017 10 16 0.00 0.00
10:53 pm 22:53 Clear 68 20 26 -3.3 21 21 N 6 9 30.03 1017 10 16 0.00 0.00
11:53 pm 23:53 Clear 68 20 27 -2.8 21 21 NW 10 17 30.02 1017 10 16 0.00 0.00

Powered by AerisWeather